CAPE
5 5 11 9 7 5 3 0 0 0 1 0 0 0 0 0 0 0 0 0 0 0 0 0 0 0 0 0 0 0 0 0 0 0 0 0 0 0 0 0 0 0 0 0 0
10 14 10 10 5 3 0 0 1 1 1 0 0 0 0 0 0 0 0 0 0 0 0 0 0 0 0 0 0 0 0 0 0 0 0 0 0 0 0 0 0 0 0 0 0
10 11 14 8 4 2 0 0 0 1 1 0 0 0 0 0 0 0 0 0 0 0 0 0 0 0 0 0 0 0 0 0 0 0 0 0 0 0 0 0 0 0 0 0 0
9 12 9 6 3 2 1 0 1 1 0 0 0 0 0 0 0 0 0 0 0 0 0 0 0 0 0 0 0 0 0 0 0 0 0 0 0 0 0 0 0 0 0 0 0
8 9 7 6 3 2 1 0 0 0 0 0 0 0 0 0 0 0 0 0 0 0 0 0 0 0 0 0 0 0 0 0 0 0 0 0 0 0 0 0 0 0 0 0 0
5 5 4 3 2 1 0 0 0 0 0 0 0 0 0 0 0 0 0 0 0 0 0 0 0 0 0 0 0 0 0 0 0 0 0 0 0 0 0 0 0 0 0 0 0
5 4 2 1 0 0 0 0 0 0 0 0 0 0 0 0 0 0 0 0 0 0 0 0 0 0 0 0 0 0 0 0 0 0 0 0 0 0 0 0 0 0 0 0 0
4 2 1 0 0 0 0 0 0 0 0 0 0 0 0 0 0 0 0 0 0 0 0 0 0 0 0 0 0 0 0 0 0 0 0 0 0 0 0 0 0 0 0 0 0
5 1 0 0 0 0 0 0 0 0 0 0 0 0 0 0 0 0 0 0 0 0 0 0 0 0 0 0 0 0 0 0 0 0 0 0 0 0 0 0 0 0 0 0 0
4 0 0 0 0 0 0 0 0 0 0 0 0 0 0 0 0 0 0 0 0 0 0 0 0 0 0 0 0 0 0 0 0 0 0 0 0 0 0 0 0 0 0 0 0
2 0 0 0 0 0 0 0 0 0 0 0 0 0 0 0 0 0 0 0 0 0 0 0 0 0 0 0 0 0 0 0 0 0 0 0 0 0 0 0 0 0 0 0 0
0 0 0 0 0 0 0 0 0 0 0 0 0 0 0 0 0 0 0 0 0 0 0 0 0 0 0 0 0 0 0 0 0 0 0 0 0 0 0 0 0 0 0 0 0
0 0 0 0 0 0 0 0 0 0 0 0 0 0 0 0 0 0 0 0 0 0 0 0 0 0 0 0 0 0 0 0 0 0 0 0 0 0 0 0 0 0 0 0 0
0 0 0 1 0 0 0 0 0 0 0 0 0 0 0 0 0 0 0 0 0 0 0 0 0 0 0 0 0 0 0 0 0 0 0 0 0 0 0 0 0 0 0 0 0
0 0 0 0 0 0 0 0 0 0 0 0 0 0 0 0 0 0 0 0 0 0 0 0 0 0 0 0 0 0 0 0 0 0 0 0 0 0 0 0 0 0 0 0 0
0 0 1 0 0 0 0 0 0 0 0 0 0 0 0 0 0 0 0 0 0 0 0 0 0 0 0 0 0 0 0 0 0 0 0 0 0 0 0 0 0 0 0 0 0
0 0 0 0 0 0 0 0 0 0 0 0 0 0 0 0 0 0 0 0 0 0 0 0 0 0 0 0 0 0 0 0 0 0 0 0 0 0 0 0 0 0 0 0 0
0 0 0 0 0 0 0 0 0 0 0 0 0 0 0 0 0 0 0 0 0 0 0 0 0 0 0 0 0 0 0 0 0 0 0 0 0 0 0 0 0 0 0 0 0
0 0 0 0 0 0 0 0 0 0 0 0 0 0 0 0 0 0 0 0 0 0 0 0 0 0 0 0 0 0 0 0 0 0 0 0 0 0 0 0 0 0 0 0 0
0 0 0 0 0 0 0 0 0 0 0 0 0 0 0 0 0 0 0 0 0 0 0 0 0 0 0 0 0 0 0 0 0 0 0 0 0 0 0 0 0 0 0 0 0
0 0 0 0 0 0 0 0 0 0 0 0 0 0 0 0 0 0 0 0 0 0 0 0 0 0 0 0 0 0 0 0 0 0 0 0 1 0 0 0 0 0 0 0 0
0 0 0 0 0 0 0 0 0 0 0 0 0 0 0 0 0 0 0 0 0 0 0 0 0 0 0 0 0 0 0 0 0 0 0 3 0 0 0 0 0 0 0 0 0
0 0 0 0 0 0 0 0 0 0 0 0 0 0 0 0 0 0 0 0 0 0 0 0 0 0 0 0 0 0 0 0 0 0 0 5 0 0 0 0 0 0 0 0 0
0 0 0 0 0 0 0 0 0 0 0 0 0 0 0 0 0 0 0 0 0 0 0 0 0 0 0 0 0 0 0 0 0 0 0 0 0 0 0 0 0 0 0 0 0
0 0 0 0 0 0 0 0 0 0 0 0 0 0 0 0 0 0 0 0 0 0 0 0 0 0 0 0 0 0 0 0 0 0 0 0 0 0 0 0 0 0 0 0 0
0 0 0 0 0 0 0 0 0 0 0 0 0 0 0 0 0 0 0 0 0 0 0 0 0 0 0 0 0 0 0 0 0 0 0 0 0 0 0 0 0 0 0 0 0
0 0 0 0 0 0 0 0 0 0 0 0 0 0 0 0 0 0 0 0 0 0 0 0 0 0 0 0 0 0 0 0 0 0 0 0 0 0 0 0 0 0 0 0 0
CIN
0 0 0 0 0 0 0 0 0 0 0 0 0 0 0 0 0 0 0 0 0 0 0 0 0 0 0 0 0 0 0 0 0 0 0 0 0 0 0 0 0 0 0 0 0
0 0 0 0 0 0 0 0 0 0 0 0 0 0 0 0 0 0 0 0 0 0 0 0 0 0 0 0 0 0 0 0 0 0 0 0 0 0 0 0 0 0 0 0 0
0 0 0 0 0 0 0 0 0 0 0 0 0 0 0 0 0 0 0 0 0 0 0 0 0 0 0 0 0 0 0 0 0 0 0 0 0 0 0 0 0 0 0 0 0
0 0 0 0 0 0 0 0 0 0 0 0 0 0 0 0 0 0 0 0 0 0 0 0 0 0 0 0 0 0 0 0 0 0 0 0 0 0 0 0 0 0 0 0 0
0 0 0 0 0 0 0 0 0 0 0 0 0 0 0 0 0 0 0 0 0 0 0 0 0 0 0 0 0 0 0 0 0 0 0 0 0 0 0 0 0 0 0 0 0
0 0 0 0 0 0 0 0 0 0 0 0 0 0 0 0 0 0 0 0 0 0 0 0 0 0 0 0 0 0 0 0 0 0 0 0 0 0 0 0 0 0 0 0 0
0 0 0 0 0 0 0 0 0 0 0 0 0 0 0 0 0 0 0 0 0 0 0 0 0 0 0 0 0 0 0 0 0 0 0 0 0 0 0 0 0 0 0 0 0
0 0 0 0 0 0 0 0 0 0 0 0 0 0 0 0 0 0 0 0 0 0 0 0 0 0 0 0 0 0 0 0 0 0 0 0 0 0 0 0 0 0 0 0 0
0 0 0 0 0 0 0 0 0 0 0 0 0 0 0 0 0 0 0 0 0 0 0 0 0 0 0 0 0 0 0 0 0 0 0 0 0 0 0 0 0 0 0 0 0
0 0 0 0 0 0 0 0 0 0 0 0 0 0 0 0 0 0 0 0 0 0 0 0 0 0 0 0 0 0 0 0 0 0 0 0 0 0 0 0 0 0 0 0 0
0 0 0 0 0 0 0 0 0 0 0 0 0 0 0 0 0 0 0 0 0 0 0 0 0 0 0 0 0 0 0 0 0 0 0 0 0 0 0 0 0 0 0 0 0
0 0 0 0 0 0 0 0 0 0 0 0 0 0 0 0 0 0 0 0 0 0 0 0 0 0 0 0 0 0 0 0 0 0 0 0 0 0 0 0 0 0 0 0 0
0 0 0 0 0 0 0 0 0 0 0 0 0 0 0 0 0 0 0 0 0 0 0 0 0 0 0 0 0 0 0 0 0 0 0 0 0 0 0 0 0 0 0 0 0
0 0 0 0 0 0 0 0 0 0 0 0 0 0 0 0 0 0 0 0 0 0 0 0 0 0 0 0 0 0 0 0 0 0 0 0 0 0 0 0 0 0 0 0 0
0 0 0 0 0 0 0 0 0 0 0 0 0 0 0 0 0 0 0 0 0 0 0 0 0 0 0 0 0 0 0 0 0 0 0 0 0 0 0 0 0 0 0 0 0
0 0 0 0 0 0 0 0 0 0 0 0 0 0 0 0 0 0 0 0 0 0 0 0 0 0 0 0 0 0 0 0 0 0 0 0 0 0 0 0 0 0 0 0 0
0 0 0 0 0 0 0 0 0 0 0 0 0 0 0 0 0 0 0 0 0 0 0 0 0 0 0 0 0 0 0 0 0 0 0 0 0 0 0 0 0 0 0 0 0
0 0 0 0 0 0 0 0 0 0 0 0 0 0 0 0 0 0 0 0 0 0 0 0 0 0 0 0 0 0 0 0 0 0 0 0 0 0 0 0 0 0 0 0 0
0 0 0 0 0 0 0 0 0 0 0 0 0 0 0 0 0 0 0 0 0 0 0 0 0 0 0 0 0 0 0 0 0 0 0 0 0 0 0 0 0 0 0 0 0
0 0 0 0 0 0 0 0 0 0 0 0 0 0 0 0 0 0 0 0 0 0 0 0 0 0 0 0 0 0 0 0 0 0 0 0 0 0 0 0 0 0 0 0 0
0 0 0 0 0 0 0 0 0 0 0 0 0 0 0 0 0 0 0 0 0 0 0 0 0 0 0 0 0 0 0 0 0 0 0 0 -1 -1 0 0 0 0 0 0 0
0 0 0 0 0 0 0 0 0 0 0 0 0 0 0 0 0 0 0 0 0 0 0 0 0 0 0 0 0 0 0 0 0 0 0 -2 -2 0 0 0 0 0 0 0 0
0 0 0 0 0 0 0 0 0 0 0 0 0 0 0 0 0 0 0 0 0 0 0 0 0 0 0 0 0 0 0 0 0 0 0 -1 0 0 0 0 0 0 0 0 0
0 0 0 0 0 0 0 0 0 0 0 0 0 0 0 0 0 0 0 0 0 0 0 0 0 0 0 0 0 0 0 0 0 0 0 0 0 0 0 0 0 0 0 0 0
0 0 0 0 0 0 0 0 0 0 0 0 0 0 0 0 0 0 0 0 0 0 0 0 0 0 0 0 0 0 0 0 0 0 0 0 0 0 0 0 0 0 0 0 0
0 0 0 0 0 0 0 0 0 0 0 0 0 0 0 0 0 0 0 0 0 0 0 0 0 0 0 0 0 0 0 0 0 0 0 0 0 0 0 0 0 0 0 0 0
0 0 0 0 0 0 0 0 0 0 0 0 0 0 0 0 0 0 0 0 0 0 0 0 0 0 0 0 0 0 0 0 0 0 0 0 0 0 0 0 0 0 0 0 0
Wind_Speed
15 16 17 17 18 18 18 18 18 18 18 18 18 19 19 20 19 2 9 5 8 15 13 9 4 7 3 3 4 2 5 2 2 5 4 8 9 5 5 4 4 2 3 3 17
16 16 17 17 16 18 18 19 18 18 18 17 17 17 17 16 3 10 1 10 11 12 6 7 7 8 4 4 4 5 4 6 2 2 5 7 6 9 8 7 2 1 5 12 16
16 16 17 18 19 18 18 19 18 18 18 18 15 15 13 6 4 5 8 14 13 8 2 1 3 3 5 4 6 3 3 4 4 5 7 6 6 8 7 6 2 7 3 8 11
16 17 18 18 19 19 19 19 18 17 17 17 15 14 13 0 2 6 12 14 11 7 5 6 5 5 5 4 4 3 5 5 7 10 5 4 6 5 8 9 9 12 7 13 14
15 17 18 19 20 19 19 19 18 18 17 14 14 14 3 7 0 6 13 10 5 6 6 4 7 2 4 3 5 4 6 8 10 9 8 8 9 8 9 14 16 11 5 13 14
17 18 18 19 20 20 20 20 19 16 14 12 12 10 1 8 5 8 9 7 5 5 5 7 3 1 5 4 3 5 3 6 7 9 6 13 7 5 5 9 12 2 7 9 13
18 18 19 20 21 21 21 20 18 14 11 9 10 2 9 4 3 8 6 3 2 2 3 3 2 6 2 3 4 5 8 6 10 17 7 19 5 4 8 18 17 19 10 8 11
19 19 20 21 22 23 22 20 13 8 6 6 7 1 5 3 5 5 8 8 6 3 1 2 2 5 5 4 8 7 7 8 8 19 9 10 6 10 19 14 17 16 18 12 9
19 20 20 22 23 23 22 16 8 4 3 7 5 5 2 9 6 6 3 6 5 5 8 6 7 5 9 4 5 10 3 4 12 11 10 8 15 8 20 19 15 14 15 16 11
18 19 20 22 22 23 23 6 8 5 4 2 1 6 6 4 5 7 4 3 4 4 6 11 7 7 7 9 3 4 4 4 6 8 5 12 19 15 16 13 16 9 14 17 17
18 19 20 21 23 23 11 5 7 6 10 4 1 3 2 7 3 5 4 5 6 8 5 6 10 7 5 4 3 3 4 5 6 9 11 6 20 17 14 13 14 14 9 15 17
18 19 20 22 22 19 4 6 3 1 4 2 3 3 3 2 6 7 5 6 9 7 4 7 10 3 3 4 2 0 2 5 8 6 11 12 24 14 9 10 11 12 13 10 13
17 18 19 20 18 5 5 3 5 1 5 4 1 2 3 2 2 5 4 2 6 7 6 7 2 4 5 5 6 3 2 3 7 6 6 8 11 8 22 8 9 10 11 9 10
16 16 17 21 5 2 3 6 4 2 7 5 3 2 2 1 4 3 6 2 6 4 3 4 3 4 4 5 2 3 5 5 6 6 3 4 10 12 9 20 13 11 11 10 10
15 15 15 8 2 3 4 6 3 4 6 1 1 1 5 7 1 10 4 6 4 3 7 2 5 5 4 3 2 7 5 6 4 2 3 4 3 8 14 18 17 16 18 17 12
14 14 15 3 1 1 6 4 4 11 4 1 2 3 5 7 5 5 7 7 3 5 6 2 4 3 3 5 3 7 4 5 4 3 3 4 1 5 9 13 20 21 19 19 19
14 15 10 1 2 5 3 4 8 7 2 1 2 3 4 6 7 6 6 9 6 6 8 8 4 5 6 8 7 10 6 4 6 5 4 5 5 8 12 13 15 19 17 17 15
14 14 3 3 2 3 3 8 6 4 3 2 3 4 6 5 5 4 3 5 7 6 4 5 3 5 7 2 4 5 1 5 3 2 5 7 5 2 16 14 19 20 21 17 20
12 3 2 2 1 2 6 5 9 6 6 7 4 5 2 3 4 4 4 2 3 4 4 2 4 5 3 3 1 5 3 3 3 0 3 2 4 4 15 16 14 20 20 20 19
3 3 3 1 2 4 6 5 2 3 5 4 5 3 4 2 3 4 2 1 2 4 1 2 2 1 6 5 4 3 3 2 3 2 3 2 3 3 9 11 9 8 13 18 18
2 1 2 2 3 5 5 6 4 2 4 4 4 5 4 5 4 3 4 2 2 2 5 1 2 4 2 3 2 5 4 4 1 3 1 4 2 5 7 11 8 8 10 12 17
1 1 1 3 5 2 4 5 3 4 3 3 5 5 5 5 4 4 4 3 3 2 2 1 3 3 4 6 4 2 2 4 3 2 2 3 5 2 5 10 11 8 11 13 14
3 2 2 4 4 2 2 2 3 4 4 3 4 4 3 5 5 4 5 5 3 4 5 3 1 2 2 3 3 3 3 4 2 2 7 3 5 7 8 11 9 9 7 9 13
2 1 4 4 1 6 7 5 5 2 4 5 5 5 5 3 1 6 4 4 2 4 3 3 3 5 6 2 2 3 3 2 5 2 4 8 12 11 9 9 9 9 7 8 10
2 5 3 4 4 4 3 7 7 6 3 4 3 5 7 5 3 4 3 2 2 3 3 4 4 2 6 6 3 6 9 7 9 9 6 6 8 6 6 6 5 5 6 9 11
4 4 1 2 4 7 3 6 8 5 7 5 6 7 5 6 6 7 6 4 4 1 2 1 2 1 5 4 6 8 9 8 10 10 12 14 16 1 6 6 5 6 7 10 11
3 2 3 3 4 5 6 7 9 9 1 6 10 7 5 6 6 5 6 5 6 8 4 3 3 3 4 3 4 6 7 6 3 3 4 4 3 4 4 6 4 5 5 6 8
Wind_Direction
347 345 344 341 339 339 335 336 336 337 336 337 336 333 337 341 328 58 46 289 290 298 320 290 7 344 52 63 30 117 65 258 234 137 279 359 0 311 289 348 315 143 165 160 134
349 344 340 338 336 335 334 335 335 334 334 333 333 334 332 338 324 52 260 315 319 328 2 4 358 352 43 31 21 79 116 218 168 28 7 334 11 302 344 334 328 299 38 124 142
348 342 342 337 335 333 333 331 332 332 331 327 334 330 331 326 53 324 333 341 334 343 235 279 291 60 50 20 1 24 163 4 352 50 11 338 325 321 317 313 188 283 135 171 168
343 346 340 337 333 332 330 329 329 328 326 323 329 334 331 266 96 272 339 337 327 347 33 19 17 47 69 28 338 32 33 48 318 325 342 318 295 289 244 251 297 288 272 174 189
347 344 339 337 333 330 326 324 325 323 320 321 330 340 322 48 45 293 335 338 360 6 42 43 44 67 87 8 345 58 356 337 316 297 285 238 218 232 256 276 287 296 157 184 196
344 342 338 334 330 327 325 324 321 319 313 323 333 334 67 74 270 342 329 337 21 11 24 43 72 92 87 74 68 308 280 303 319 329 333 333 291 129 323 328 306 269 221 205 203
344 342 339 335 330 326 326 323 316 309 307 320 337 6 65 88 355 329 334 295 333 342 40 52 70 65 89 32 347 327 352 359 34 350 26 343 4 104 22 8 357 341 323 277 226
343 341 338 334 330 328 328 326 316 304 306 320 333 9 85 307 312 358 332 335 8 75 4 64 91 95 44 2 22 36 43 6 341 8 342 28 243 337 347 352 338 326 326 329 273
342 341 339 336 331 330 333 331 355 11 335 323 37 69 22 325 17 313 334 338 340 4 17 62 63 78 15 59 42 17 34 353 326 342 333 51 296 310 326 332 329 324 319 319 319
341 340 339 337 332 332 330 301 330 352 347 356 80 52 353 312 310 331 316 360 20 1 20 37 54 69 15 34 76 338 355 322 301 302 323 295 283 314 319 312 315 322 316 310 308
338 339 339 339 336 333 351 10 20 360 41 75 89 96 354 291 325 338 336 2 33 51 63 16 65 56 40 75 131 170 205 279 249 285 324 294 297 317 308 304 299 298 283 290 293
337 340 340 338 334 328 29 70 91 227 62 167 274 301 237 281 17 336 21 57 33 48 17 39 59 16 7 56 58 314 322 309 297 293 304 301 302 305 300 280 286 291 300 276 286
334 337 337 333 326 26 67 75 321 179 96 340 343 325 304 56 14 315 33 60 64 43 36 85 62 9 46 17 28 317 226 257 268 320 269 323 306 14 338 328 299 291 273 282 275
330 333 335 330 52 325 47 325 329 199 82 315 359 0 21 335 67 342 9 100 40 61 85 86 18 32 40 54 99 292 222 255 281 15 346 44 294 331 317 319 310 310 342 328 326
327 330 333 7 267 60 304 324 324 53 63 198 65 340 7 89 291 339 328 34 86 17 68 296 10 10 28 302 273 241 317 266 245 207 34 289 357 318 352 8 9 3 2 349 336
322 327 333 1 24 279 309 321 59 44 251 67 48 10 56 20 27 330 21 37 71 75 31 31 291 52 341 311 318 289 317 4 43 79 33 305 111 338 11 342 4 357 1 2 1
322 320 320 283 243 315 336 53 47 119 309 56 79 58 92 18 34 37 47 34 42 32 10 345 1 359 34 351 344 17 34 10 14 14 248 341 24 35 333 356 1 355 358 8 6
324 320 276 227 306 348 52 53 91 220 195 101 90 71 76 27 30 28 47 33 19 56 64 31 354 15 348 145 264 311 89 130 184 298 294 328 47 250 354 12 356 343 2 357 9
330 311 288 272 277 54 75 72 203 207 160 134 63 83 60 34 92 68 56 89 15 29 102 51 283 327 335 300 166 320 64 192 138 306 278 257 1 22 353 342 11 359 357 353 12
345 338 255 342 116 60 78 212 181 235 119 107 122 135 136 154 101 90 120 324 145 14 119 185 286 286 299 4 2 66 306 65 16 19 296 304 77 267 354 358 2 13 342 350 8
4 57 240 8 81 57 159 207 191 207 126 120 133 118 128 147 148 147 142 355 49 350 45 66 116 294 353 51 349 353 12 18 161 97 221 313 171 24 328 345 2 6 6 13 4
135 322 283 100 68 39 157 185 176 141 91 96 96 100 132 150 147 156 145 145 215 138 130 127 147 276 258 276 197 54 81 57 65 330 264 261 243 59 16 7 12 10 22 10 9
197 222 332 110 149 259 250 184 192 137 144 125 113 119 134 147 129 155 131 158 135 142 156 174 196 354 18 12 73 107 119 115 227 197 235 223 250 31 30 7 2 356 18 18 13
125 138 325 51 148 148 150 169 145 102 113 112 115 102 108 120 96 159 139 193 334 181 161 153 186 195 198 174 138 259 189 139 160 174 262 247 297 333 351 351 342 349 2 3 12
161 235 190 205 255 171 131 146 144 152 134 126 91 154 149 129 124 175 143 92 39 101 79 120 199 225 263 262 224 253 263 253 211 223 211 282 276 299 311 319 322 326 354 356 358
187 161 6 149 126 119 174 216 152 157 138 185 144 166 153 151 172 179 144 197 179 101 104 331 227 54 289 286 222 256 254 238 244 243 240 260 280 259 297 324 352 349 346 348 346
200 284 116 170 150 114 204 171 185 133 227 162 146 123 151 210 175 180 180 165 162 152 158 148 146 123 266 332 316 312 227 193 221 157 205 243 246 315 317 327 303 307 321 319 327